Other Public Products
Issued by NWS Grand Forks, ND

Home | Current Version | Previous Version | Graphics & Text | Print | Product List | Glossary On
Versions: 1 2 3 4 5 6 7 8 9 10 11 12 13 14 15 16 17 18 19 20 21 22 23 24 25 26 27 28 29 30 31 32 33 34 35 36 37 38 39 40 41 42 43 44 45 46 47 48 49 50
000
FPUS83 KFGF 251210
OPUFGF
PRAIRIE TO PINES WEATHER ROUNDUP
NATIONAL WEATHER SERVICE EASTERN NORTH DAKOTA/GRAND FORKS ND
700 AM CDT FRI JUL 25 2014

 **SATELLITE DATA USED TO AUGMENT SKY COVER AT AUTOMATED STATIONS**
 *****  WEATHER ACROSS EASTERN NORTH DAKOTA  *****

CITY           SKY/WX    TMP DP  RH WIND       PRES   REMARKS
GRAND FORKS    PTCLDY    65  62  90 S9        29.68F
6HR MIN TEMP:  65; 6HR MAX TEMP:  70;

GRAND FORKS AF PTCLDY    65  65  99 S13       29.69R
GRAND CITY NWS NOT AVBL
BUXTON         NOT AVBL
DEVILS LAKE    PTCLDY    66  59  77 W9        29.73R
6HR MIN TEMP:  64; 6HR MAX TEMP:  68;

FARGO          CLEAR     67  62  84 S10       29.72F
6HR MIN TEMP:  65; 6HR MAX TEMP:  69; 6HR PCP: TRACE;

WAHPETON ARPT  MOSUNNY   63  59  88 SE6       29.74S
$$

 *****  WEATHER ACROSS CENTRAL AND WESTERN NORTH DAKOTA  *****

CITY           SKY/WX    TMP DP  RH WIND       PRES   REMARKS
JAMESTOWN      CLEAR     63  61  93 CALM      29.74S
6HR MIN TEMP:  62; 6HR MAX TEMP:  67; 6HR PCP: TRACE;

BISMARCK       CLOUDY    68  65  90 W8        29.81R
6HR MIN TEMP:  65; 6HR MAX TEMP:  69;

MINOT          CLEAR     61  50  67 W10       29.80R
6HR MIN TEMP:  61; 6HR MAX TEMP:  69; 6HR PCP:  0.26;

MINOT AFB      CLEAR     59  56  89 W9        29.80R
6HR MIN TEMP:  58; 6HR MAX TEMP:  69; 6HR PCP:  0.14;

GARRISON         N/A     60  56  86 NW6       29.83R
6HR MIN TEMP:  59; 6HR MAX TEMP:  69;

WILLISTON      CLEAR     55  51  86 W9        29.88R
6HR MIN TEMP:  53; 6HR MAX TEMP:  60;

DICKINSON      CLEAR     52  49  89 NW7       29.89R
6HR MIN TEMP:  51; 6HR MAX TEMP:  66;

HETTINGER      CLEAR     51  46  83 NW5       29.92R
6HR MIN TEMP:  51; 6HR MAX TEMP:  67;

$$

 *****  OTHER OBSERVATIONS NORTHEAST NORTH DAKOTA  *****

CITY           SKY/WX    TMP DP  RH WIND       PRES   REMARKS
WALHALLA         N/A     64  64 100 W3          N/A
LANGDON        CLOUDY    64  63  94 W7        29.77R
CAVALIER       FAIR      64  63  94 SW8       29.72R
GRAFTON        FAIR      64  64 100 W6        29.72R
CANDO          CLOUDY    64  64 100 W6        29.77S
FORT TOTTEN    NOT AVBL
ROLLA          FAIR      64  64 100 SW3       29.78R FOG
RUGBY          CLOUDY    66  66 100 W6        29.77R
 ***** THE ABOVE OBSERVATIONS ARE NON NWS ARE NOT QUALITY
        CONTROLLED AND MAY MIS-REPORT RAIN FOR SNOW...
$$

 *****  OTHER OBSERVATIONS SOUTHEAST NORTH DAKOTA *****

CITY           SKY/WX    TMP DP  RH WIND       PRES   REMARKS
COOPERSTOWN    NOT AVBL
VALLEY CITY    FAIR      63  63 100 SE6       29.74F
OAKES          NOT AVBL
GWINNER        CLOUDY    64  64 100 E7        29.74F
BUFFALO        NOT AVBL
WYNDMERE       NOT AVBL
 ***** THE ABOVE OBSERVATIONS ARE NON NWS ARE NOT QUALITY
       CONTROLLED AND MAY MIS-REPORT RAIN FOR SNOW...
$$

  *****  WEATHER ACROSS NORTHERN MINNESOTA  *****

CITY           SKY/WX    TMP DP  RH WIND       PRES   REMARKS
FLAG ISLAND    MOSUNNY   66  61  82 SE9       29.74S
WARROAD        PTSUNNY   63  59  88 E3        29.75F
ROSEAU         PTSUNNY   63  57  82 E3        29.74F
HALLOCK        CLOUDY    66  63  88 CALM      29.72R
THF RVR FALLS  MOCLDY    64  61  88 SE8       29.71F
6HR MIN TEMP:  64; 6HR MAX TEMP:  68;

HALSTAD          N/A     65  63  92 S7          N/A
FOSSTON        PTCLDY    63  59  88 S7        29.74F
BAUDETTE       MOSUNNY   63  59  87 SE3       29.77S
6HR MIN TEMP:  61; 6HR MAX TEMP:  64; 6HR PCP: TRACE;

WASKISH        MOSUNNY   63  61  94 CALM      29.74F
CROOKSTON      MOCLDY    66  61  82 S14       29.69F
$$
  *****  WEATHER ACROSS CENTRAL AND WEST MINNESOTA  *****

CITY           SKY/WX    TMP DP  RH WIND       PRES   REMARKS
BEMIDJI        PTSUNNY   64  59  83 SE10      29.75S
PARK RAPIDS    MOCLDY    62  60  93 SE8       29.80R
6HR MIN TEMP:  62; 6HR MAX TEMP:  67; 6HR PCP:  0.01;

WADENA         CLOUDY    63  61  94 E5        29.79R
DETROIT LAKES  MOCLDY    64  61  88 SE12      29.77F
MOORHEAD       PTCLDY    66  66 100 S6        29.73F
FERGUS FALLS   PTCLDY    64  61  88 SE6       29.75S
ELBOW LAKE     FAIR      63  62  96 SE8       29.74F
MORRIS MN      MOCLDY    64  63  94 SE10      29.73S
STAPLES        CLOUDY    63  61  94 SE6       29.80R
WHEATON        NOT AVBL
$$
  *****  WEATHER ELSEWHERE ACROSS MINNESOTA  *****

CITY           SKY/WX    TMP DP  RH WIND       PRES   REMARKS
DULUTH         CLOUDY    62  57  83 SE7       29.84S
6HR MIN TEMP:  61; 6HR MAX TEMP:  66; 6HR PCP: TRACE;

INTRNTL FALLS  PTSUNNY   62  59  90 SE6       29.78F
6HR MIN TEMP:  57; 6HR MAX TEMP:  62; 6HR PCP:  0.01;

ELY            CLOUDY    61  57  88 S3        29.83F
CLOQUET        LGT RAIN  63  57  82 NE5       29.84F
BRAINERD       CLOUDY    63  61  93 S6        29.83R
6HR MIN TEMP:  62; 6HR MAX TEMP:  68; 6HR PCP:  0.05;

HIBBING        CLOUDY    62  58  86 SE5       29.81F
6HR MIN TEMP:  59; 6HR MAX TEMP:  63; 6HR PCP: TRACE;

ALEXANDRIA     CLOUDY    63  61  93 E3        29.78F
6HR MIN TEMP:  62; 6HR MAX TEMP:  64; 6HR PCP:  0.16;

SAINT CLOUD    CLOUDY    66  62  87 S3        29.82R
6HR MIN TEMP:  65; 6HR MAX TEMP:  69; 6HR PCP:  0.42;

MINNEAPOLIS    CLOUDY    64  63  96 SE14G22   29.79F
6HR MIN TEMP:  64; 6HR MAX TEMP:  69; 6HR PCP:  0.41;

$$

  *****  WEATHER ACROSS SOUTH DAKOTA  *****

CITY           SKY/WX    TMP DP  RH WIND       PRES   REMARKS
SIOUX FALLS    PTCLDY    66  61  84 SE18G28   29.79F
6HR MIN TEMP:  65; 6HR MAX TEMP:  68;

BROOKINGS      NOT AVBL
WATERTOWN      MOCLDY    65  62  90 S17       29.72F
6HR MIN TEMP:  64; 6HR MAX TEMP:  66; 6HR PCP:  0.27;

HURON          PTCLDY    67  63  87 CALM      29.76R
6HR MIN TEMP:  64; 6HR MAX TEMP:  71; 6HR PCP: TRACE;

SISSETON         N/A     64  63  96 E5        29.73R
ABERDEEN       CLEAR     64  64 100 N5        29.72R
6HR MIN TEMP:  63; 6HR MAX TEMP:  70; 6HR PCP: TRACE;

MITCHELL       PTCLDY    67  63  87 SE16      29.73R
PIERRE         CLEAR     69  66  90 N14       29.76R
6HR MIN TEMP:  68; 6HR MAX TEMP:  75;

MOBRIDGE       MOCLDY    66  65  96 NW13      29.77R
RAPID CITY     CLEAR     63  37  38 NW16      29.96R
6HR MIN TEMP:  63; 6HR MAX TEMP:  73;

$$

  *****  SOME WEATHER IN NEARBY STATES *****

CITY           SKY/WX    TMP DP  RH WIND       PRES   REMARKS
GLASGOW MT     CLEAR     52  36  54 S6        29.88F
6HR MIN TEMP:  51; 6HR MAX TEMP:  60;

GREAT FALLS MT CLEAR     54  36  50 SW18G28   29.94R
6HR MIN TEMP:  47; 6HR MAX TEMP:  58;

CHEYENNE WY    PTCLDY    70  45  40 W16G22    30.12R
6HR MIN TEMP:  65; 6HR MAX TEMP:  72;

SCOTTSBLUFF NE CLEAR     63  55  75 W5        30.00R
6HR MIN TEMP:  63; 6HR MAX TEMP:  83;

OMAHA NE       CLOUDY    75  64  68 SE16      29.79R
6HR MIN TEMP:  73; 6HR MAX TEMP:  83; 6HR PCP: TRACE;

DES MOINES IA  LGT RAIN  66  60  81 E13       29.94F
6HR MIN TEMP:  65; 6HR MAX TEMP:  70; 6HR PCP:  0.09;

DAVENPORT IA   RAIN      62  59  90 S5        30.09S FOG
6HR MIN TEMP:  60; 6HR MAX TEMP:  64; 6HR PCP:  0.12;

CHICAGO IL     CLOUDY    62  48  60 W9        30.09R
6HR MIN TEMP:  55; 6HR MAX TEMP:  62;

EAU CLAIRE WI  CLOUDY    66  59  78 SE7       29.86F
6HR MIN TEMP:  66; 6HR MAX TEMP:  67;

LA CROSSE WI   HVY RAIN  64  61  90 S17G28    29.96R FOG
6HR MIN TEMP:  64; 6HR MAX TEMP:  70; 6HR PCP:  0.32;

$$

  *****  SOME NATIONAL WEATHER *****

CITY           SKY/WX    TMP DP  RH WIND       PRES   REMARKS
LA GUARDIA NY  MOSUNNY   70  54  56 N7        30.00R
RALEIGH NC     FOG       69  66  90 NE7       30.06R VSB 1


USA.gov is the U.S. government's official web portal to all federal, state and local government web resources and services.